This is the latest recevied weather packets stored in our database for station/object VK4AB-13. If no packets are shown the sender has not sent any weather packets the latest 10 day(s).
| Time | Temp. | Humidity | Pressure | Rain* | Wind** | Luminosity | Snow |
|---|---|---|---|---|---|---|---|
| 1778294019 | 25° C | 44% | 1021.4 hPa | 0 mm | - | 682 W/m² | - |
| 1778293719 | 25° C | 44% | 1021.6 hPa | 0 mm | - | 687 W/m² | - |
| 1778293419 | 25° C | 44% | 1021.7 hPa | 0 mm | - | 696 W/m² | - |
| 1778293119 | 24.44° C | 46% | 1021.7 hPa | 0 mm | - | 693 W/m² | - |
| 1778292819 | 24.44° C | 47% | 1021.8 hPa | 0 mm | - | 687 W/m² | - |
| 1778292519 | 23.89° C | 47% | 1021.9 hPa | 0 mm | - | 691 W/m² | - |
| 1778292219 | 23.89° C | 47% | 1021.9 hPa | 0 mm | - | 691 W/m² | - |
| 1778291919 | 23.89° C | 47% | 1022.1 hPa | 0 mm | - | 694 W/m² | - |
| 1778291619 | 23.89° C | 47% | 1022.1 hPa | 0 mm | - | 694 W/m² | - |
| 1778291319 | 23.89° C | 47% | 1022.2 hPa | 0 mm | - | 694 W/m² | - |
| 1778291019 | 24.44° C | 46% | 1022.3 hPa | 0 mm | - | 694 W/m² | - |
| 1778290719 | 23.89° C | 46% | 1022.3 hPa | 0 mm | - | 693 W/m² | - |
| 1778290419 | 23.89° C | 46% | 1022.4 hPa | 0 mm | - | 691 W/m² | - |
| 1778290119 | 23.89° C | 46% | 1022.4 hPa | 0 mm | - | 689 W/m² | - |
| 1778289819 | 23.89° C | 45% | 1022.6 hPa | 0 mm | - | 687 W/m² | - |
| 1778289519 | 23.89° C | 46% | 1022.6 hPa | 0 mm | - | 687 W/m² | - |
| 1778289219 | 23.89° C | 46% | 1022.7 hPa | 0 mm | - | 686 W/m² | - |
| 1778288919 | 23.33° C | 45% | 1022.8 hPa | 0 mm | - | 673 W/m² | - |
| 1778288619 | 23.33° C | 46% | 1022.8 hPa | 0 mm | - | 679 W/m² | - |
| 1778288319 | 23.33° C | 45% | 1022.8 hPa | 0 mm | - | 679 W/m² | - |
| 1778288019 | 22.78° C | 46% | 1022.9 hPa | 0 mm | - | 675 W/m² | - |
| 1778287719 | 22.78° C | 46% | 1022.9 hPa | 0 mm | - | 671 W/m² | - |
| 1778287419 | 22.78° C | 46% | 1023.1 hPa | 0 mm | - | 666 W/m² | - |
| 1778287119 | 22.22° C | 46% | 1023.1 hPa | 0 mm | - | 666 W/m² | - |
| 1778286819 | 22.22° C | 46% | 1023.1 hPa | 0 mm | - | 656 W/m² | - |
* Rain latest hour (hover to see other rain measurements)
** Current wind speed in m/s (hover to see current wind gust speed)